EDW211 LGSA-LSZH

Flight info

Callsign EDW211
Flight time 1h 55m
Altitude 24000
Route SOKRI J65 TRL M601 KFN M872 LATAN/N0455F360 DCT ROBOT DCT OSDAX DCT AFCAM DCT ARSOB/N0397F180 L612 MASEG DCT BAKEP DCT NEVMO DCT OSKOR DCT EVRIP DCT CANNE Z651 KELIP
Aircraft A320/M-SDE2E3FGHIJ1RWXY/LB1

Departure

Time 2026-05-04 06:25
Airport Chania International Airport (LGSA)

Arrival

Time 2026-05-04 08:20
Airport Zürich Airport (LSZH)
Time Latitude Longitude Altitude Speed Heading
2026-05-04 06:11 35.53852 24.13898 430 ft 0 kts 21°
2026-05-04 06:17 35.53862 24.13947 432 ft 20 kts 99°
2026-05-04 06:17 35.53766 24.14120 433 ft 24 kts 133°
2026-05-04 06:17 35.53700 24.14287 444 ft 20 kts 108°
2026-05-04 06:18 35.53622 24.14342 446 ft 14 kts 181°
2026-05-04 06:18 35.53538 24.14414 448 ft 15 kts 113°
2026-05-04 06:18 35.53503 24.14527 449 ft 13 kts 111°
2026-05-04 06:20 35.53207 24.15427 466 ft 22 kts 112°
2026-05-04 06:20 35.53155 24.15589 468 ft 19 kts 111°
2026-05-04 06:21 35.52875 24.15891 473 ft 16 kts 263°
2026-05-04 06:21 35.52923 24.15738 468 ft 32 kts 294°
2026-05-04 06:22 35.53118 24.15148 462 ft 115 kts 292°
2026-05-04 06:22 35.53499 24.14007 501 ft 170 kts 293°
2026-05-04 06:25 35.60561 23.91181 9564 ft 246 kts 295°
2026-05-04 06:25 35.61170 23.89214 10348 ft 247 kts 296°
2026-05-04 06:26 35.61784 23.87235 11033 ft 249 kts 295°
2026-05-04 06:26 35.62404 23.85233 11709 ft 252 kts 295°
2026-05-04 06:26 35.63029 23.83206 12392 ft 255 kts 295°
2026-05-04 06:26 35.63661 23.81159 13054 ft 258 kts 295°
2026-05-04 06:27 35.66245 23.72786 15707 ft 261 kts 296°
2026-05-04 06:28 35.66885 23.70699 16431 ft 260 kts 296°
2026-05-04 06:28 35.67519 23.68624 17127 ft 259 kts 296°
2026-05-04 06:28 35.68150 23.66558 17812 ft 258 kts 296°
2026-05-04 06:28 35.68779 23.64499 18493 ft 257 kts 297°
2026-05-04 06:29 35.69594 23.62585 19036 ft 250 kts 315°
2026-05-04 06:29 35.70985 23.61345 19542 ft 251 kts 336°
2026-05-04 06:29 35.72090 23.60896 19884 ft 253 kts 339°
2026-05-04 06:29 35.74327 23.60047 20568 ft 255 kts 339°
2026-05-04 06:30 35.75472 23.59608 20911 ft 256 kts 338°
2026-05-04 06:30 35.77734 23.58736 21573 ft 258 kts 338°
2026-05-04 06:30 35.79455 23.58071 22101 ft 260 kts 338°
2026-05-04 06:30 35.81184 23.57398 22588 ft 262 kts 338°
2026-05-04 06:31 35.82361 23.56940 22926 ft 263 kts 338°
2026-05-04 06:31 35.84112 23.56258 23411 ft 265 kts 338°
2026-05-04 06:31 35.85873 23.55570 23867 ft 267 kts 338°
2026-05-04 06:31 35.87679 23.54977 24224 ft 274 kts 344°
2026-05-04 06:32 35.89600 23.54566 24329 ft 286 kts 344°
2026-05-04 06:33 36.05210 23.51394 25167 ft 361 kts 345°
2026-05-04 06:34 36.07713 23.50886 25285 ft 368 kts 345°
2026-05-04 06:34 36.10265 23.50366 25404 ft 375 kts 345°
2026-05-04 06:34 36.12866 23.49834 25526 ft 382 kts 345°
2026-05-04 06:34 36.15507 23.49289 25651 ft 388 kts 345°
2026-05-04 06:35 36.18188 23.48737 25774 ft 393 kts 346°
2026-05-04 06:36 36.35037 23.38220 27117 ft 396 kts 321°
2026-05-04 06:37 36.37205 23.36110 27407 ft 395 kts 321°
2026-05-04 06:37 36.39366 23.34009 27698 ft 394 kts 321°
2026-05-04 06:37 36.41525 23.31912 27995 ft 393 kts 321°
2026-05-04 06:37 36.43679 23.29821 28299 ft 392 kts 321°
2026-05-04 06:38 36.45823 23.27732 28599 ft 391 kts 321°
2026-05-04 06:38 36.47961 23.25645 28904 ft 390 kts 321°
2026-05-04 06:40 36.62770 23.11160 30958 ft 384 kts 321°
2026-05-04 06:40 36.64866 23.09102 31172 ft 384 kts 321°
2026-05-04 06:40 36.66960 23.07047 31406 ft 383 kts 321°
2026-05-04 06:40 36.69055 23.04990 31649 ft 383 kts 321°
2026-05-04 06:41 36.71144 23.02934 31897 ft 382 kts 321°
2026-05-04 06:41 36.73229 23.00880 32148 ft 382 kts 321°
2026-05-04 06:41 36.75310 22.98830 32405 ft 381 kts 321°
2026-05-04 06:41 36.77392 22.96779 32649 ft 381 kts 321°
2026-05-04 06:42 36.79469 22.94734 32895 ft 380 kts 321°
2026-05-04 06:42 36.81543 22.92689 33143 ft 380 kts 321°
2026-05-04 06:42 36.83615 22.90646 33399 ft 379 kts 321°
2026-05-04 06:44 36.97999 22.76408 34969 ft 376 kts 321°
2026-05-04 06:44 37.00047 22.74372 35159 ft 376 kts 321°
2026-05-04 06:44 37.02070 22.72363 35327 ft 376 kts 321°
2026-05-04 06:45 37.04118 22.70323 35490 ft 377 kts 321°
2026-05-04 06:45 37.06170 22.68280 35648 ft 377 kts 321°
2026-05-04 06:45 37.08224 22.66236 35811 ft 377 kts 321°
2026-05-04 06:45 37.10279 22.64189 35952 ft 378 kts 321°
2026-05-04 06:46 37.12337 22.62138 36132 ft 377 kts 321°
2026-05-04 06:46 37.14398 22.60082 36190 ft 380 kts 321°
2026-05-04 06:46 37.18561 22.55924 36192 ft 384 kts 321°
2026-05-04 06:48 37.35226 22.39212 36206 ft 382 kts 321°
2026-05-04 06:50 37.47062 22.17193 36205 ft 389 kts 300°
2026-05-04 06:51 37.49473 22.11091 36174 ft 389 kts 300°
2026-05-04 06:51 37.51879 22.04980 36202 ft 390 kts 300°
2026-05-04 06:52 37.54287 21.98859 36214 ft 390 kts 300°
2026-05-04 06:52 37.56700 21.92741 36207 ft 390 kts 300°
2026-05-04 06:53 37.59107 21.86619 36210 ft 390 kts 300°
2026-05-04 06:53 37.61503 21.80488 36209 ft 390 kts 300°
2026-05-04 06:54 37.63903 21.74344 36186 ft 391 kts 300°
2026-05-04 06:54 37.66301 21.68185 36190 ft 391 kts 300°
2026-05-04 06:55 37.68687 21.62063 36199 ft 392 kts 300°
2026-05-04 06:55 37.71091 21.55883 36209 ft 392 kts 300°
2026-05-04 06:57 37.80663 21.31099 36231 ft 392 kts 300°
2026-05-04 06:58 37.83051 21.24896 36230 ft 392 kts 300°
2026-05-04 06:58 37.85437 21.18693 36248 ft 392 kts 300°
2026-05-04 06:59 37.87815 21.12478 36211 ft 392 kts 300°
2026-05-04 06:59 37.90191 21.06255 36207 ft 393 kts 300°
2026-05-04 07:01 37.99692 20.81261 36196 ft 394 kts 300°
2026-05-04 07:02 38.02071 20.74995 36164 ft 395 kts 299°
2026-05-04 07:02 38.04449 20.68715 36170 ft 395 kts 299°
2026-05-04 07:03 38.06817 20.62412 36177 ft 396 kts 299°
2026-05-04 07:03 38.09182 20.56103 36182 ft 396 kts 299°
2026-05-04 07:04 38.11843 20.50037 36189 ft 391 kts 310°
2026-05-04 07:04 38.15616 20.45095 36162 ft 390 kts 316°
2026-05-04 07:05 38.19498 20.40262 36170 ft 391 kts 316°
2026-05-04 07:05 38.23380 20.35412 36188 ft 392 kts 316°
2026-05-04 07:06 38.29174 20.28144 36181 ft 392 kts 316°
2026-05-04 07:07 38.33056 20.23263 36182 ft 392 kts 316°
2026-05-04 07:09 38.48600 20.03720 36170 ft 392 kts 316°
2026-05-04 07:09 38.52468 19.98821 36182 ft 392 kts 316°
2026-05-04 07:10 38.56339 19.93920 36178 ft 392 kts 316°
2026-05-04 07:12 38.71814 19.74263 36156 ft 392 kts 316°
2026-05-04 07:12 38.75672 19.69332 36158 ft 392 kts 316°
2026-05-04 07:13 38.79528 19.64404 36171 ft 392 kts 316°
2026-05-04 07:13 38.83384 19.59464 36169 ft 392 kts 316°
2026-05-04 07:14 38.93026 19.47080 36163 ft 392 kts 316°
2026-05-04 07:15 38.96881 19.42114 36148 ft 392 kts 316°
2026-05-04 07:15 39.00736 19.37144 36155 ft 393 kts 316°
2026-05-04 07:16 39.04589 19.32163 36160 ft 393 kts 316°
2026-05-04 07:16 39.07791 19.28026 36157 ft 393 kts 316°
2026-05-04 07:17 39.11647 19.23042 36160 ft 393 kts 316°
2026-05-04 07:17 39.15501 19.18047 36159 ft 393 kts 316°
2026-05-04 07:18 39.19348 19.13047 36164 ft 393 kts 316°
2026-05-04 07:18 39.23196 19.08034 36146 ft 393 kts 315°
2026-05-04 07:19 39.27041 19.03007 36148 ft 394 kts 315°
2026-05-04 07:19 39.31050 18.98190 36154 ft 394 kts 321°
2026-05-04 07:20 39.35298 18.93721 36172 ft 394 kts 321°
2026-05-04 07:20 39.39547 18.89251 36174 ft 394 kts 321°
2026-05-04 07:22 39.56538 18.71278 36153 ft 395 kts 320°
2026-05-04 07:23 39.60788 18.66748 36162 ft 396 kts 320°
2026-05-04 07:23 39.65043 18.62211 36165 ft 396 kts 321°
2026-05-04 07:24 39.69304 18.57669 36165 ft 396 kts 321°
2026-05-04 07:24 39.73564 18.53123 36168 ft 396 kts 320°
2026-05-04 07:26 39.90600 18.34838 36152 ft 398 kts 320°
2026-05-04 07:27 39.94869 18.30243 36158 ft 398 kts 320°
2026-05-04 07:27 39.99142 18.25633 36161 ft 399 kts 320°
2026-05-04 07:28 40.03385 18.21047 36162 ft 399 kts 320°
2026-05-04 07:28 40.07661 18.16425 36161 ft 399 kts 320°
2026-05-04 07:29 40.11930 18.11789 36159 ft 399 kts 320°
2026-05-04 07:29 40.16201 18.07153 36170 ft 399 kts 320°
2026-05-04 07:30 40.20477 18.02512 36175 ft 399 kts 320°
2026-05-04 07:30 40.24747 17.97859 36175 ft 399 kts 320°
2026-05-04 07:31 40.29012 17.93192 36172 ft 400 kts 320°
2026-05-04 07:33 40.46076 17.74476 36162 ft 400 kts 320°
2026-05-04 07:33 40.50346 17.69774 36155 ft 401 kts 320°
2026-05-04 07:34 40.54619 17.65062 36157 ft 401 kts 320°
2026-05-04 07:34 40.58898 17.60338 36161 ft 402 kts 320°
2026-05-04 07:35 40.63174 17.55602 36154 ft 402 kts 320°
2026-05-04 07:35 40.67453 17.50859 36170 ft 402 kts 320°
2026-05-04 07:36 40.71673 17.46015 36164 ft 402 kts 314°
2026-05-04 07:38 40.87252 17.24773 36161 ft 404 kts 314°
2026-05-04 07:38 40.91157 17.19425 36180 ft 404 kts 314°
2026-05-04 07:39 40.95068 17.14077 36170 ft 404 kts 314°
2026-05-04 07:39 40.98973 17.08719 36173 ft 405 kts 314°
2026-05-04 07:40 41.02877 17.03354 36148 ft 405 kts 314°
2026-05-04 07:40 41.06781 16.97964 36151 ft 406 kts 314°
2026-05-04 07:41 41.10688 16.92556 36160 ft 406 kts 314°
2026-05-04 07:41 41.14599 16.87138 36163 ft 407 kts 314°
2026-05-04 07:42 41.18514 16.81718 36172 ft 407 kts 314°
2026-05-04 07:42 41.22431 16.76285 36179 ft 407 kts 314°
2026-05-04 07:43 41.26340 16.70847 36177 ft 407 kts 314°
2026-05-04 07:43 41.30259 16.65398 36160 ft 408 kts 313°
2026-05-04 07:44 41.34176 16.59928 36152 ft 409 kts 313°
2026-05-04 07:44 41.38106 16.54456 36162 ft 409 kts 314°
2026-05-04 07:45 41.42078 16.49031 36169 ft 409 kts 314°
2026-05-04 07:45 41.46060 16.43602 36166 ft 410 kts 314°
2026-05-04 07:46 41.50015 16.38194 36163 ft 410 kts 314°
2026-05-04 07:46 41.58062 16.27111 36154 ft 411 kts 313°
2026-05-04 07:47 41.73991 16.05067 36162 ft 412 kts 313°
2026-05-04 07:49 42.42067 15.20599 36147 ft 420 kts 317°
2026-05-04 07:49 42.59645 14.99578 36152 ft 422 kts 316°
2026-05-04 07:50 42.76153 14.76942 36142 ft 423 kts 310°
2026-05-04 07:50 42.91740 14.52825 36168 ft 424 kts 310°
2026-05-04 07:51 43.07286 14.28612 36152 ft 424 kts 309°
2026-05-04 07:51 43.22812 14.04227 36146 ft 425 kts 309°
2026-05-04 07:52 43.38335 13.79665 36112 ft 427 kts 309°
2026-05-04 07:52 43.54441 13.55430 36144 ft 430 kts 311°
2026-05-04 07:54 44.19282 12.56976 36131 ft 434 kts 309°
2026-05-04 07:55 44.34880 12.31165 36135 ft 436 kts 308°
2026-05-04 07:55 44.50556 12.05147 36137 ft 438 kts 308°
2026-05-04 07:56 44.66091 11.79081 36143 ft 439 kts 308°
2026-05-04 07:56 44.81709 11.52647 36149 ft 439 kts 307°
2026-05-04 07:57 44.97401 11.26204 36138 ft 440 kts 308°
2026-05-04 07:57 45.13315 10.99647 36131 ft 440 kts 308°
2026-05-04 07:58 45.28962 10.73274 36135 ft 440 kts 307°
2026-05-04 07:58 45.44662 10.46538 36132 ft 440 kts 307°
2026-05-04 07:59 45.60319 10.19635 36125 ft 441 kts 307°
2026-05-04 07:59 45.67221 10.05326 36142 ft 436 kts 294°
2026-05-04 07:59 45.72837 9.89905 36126 ft 437 kts 295°
2026-05-04 08:00 45.84040 9.58941 36151 ft 438 kts 295°
2026-05-04 08:02 46.66413 8.92305 36121 ft 454 kts 335°
2026-05-04 08:02 46.69382 8.90678 35904 ft 458 kts 335°
2026-05-04 08:02 46.72368 8.89035 35642 ft 459 kts 335°
2026-05-04 08:03 46.75364 8.87383 35368 ft 461 kts 335°
2026-05-04 08:03 46.78372 8.85722 34476 ft 466 kts 335°
2026-05-04 08:03 46.81410 8.84042 33503 ft 467 kts 335°
2026-05-04 08:03 46.83424 8.82927 32861 ft 468 kts 335°
2026-05-04 08:04 46.86476 8.81236 31850 ft 470 kts 335°
2026-05-04 08:04 46.89543 8.79533 30827 ft 473 kts 335°
2026-05-04 08:04 46.92630 8.77817 29707 ft 477 kts 335°
2026-05-04 08:04 46.95813 8.76358 28487 ft 483 kts 344°
2026-05-04 08:05 46.99152 8.75590 27313 ft 487 kts 351°
2026-05-04 08:05 47.02538 8.75060 25998 ft 492 kts 351°
2026-05-04 08:05 47.05947 8.74523 24730 ft 494 kts 352°
2026-05-04 08:05 47.09358 8.73903 23492 ft 494 kts 350°
2026-05-04 08:06 47.12759 8.73108 22244 ft 494 kts 348°
2026-05-04 08:06 47.16106 8.72197 21352 ft 486 kts 347°
2026-05-04 08:06 47.19407 8.71237 20489 ft 480 kts 347°
2026-05-04 08:06 47.22679 8.70280 19601 ft 477 kts 347°
2026-05-04 08:08 47.42409 8.56926 13796 ft 406 kts 312°
2026-05-04 08:08 47.44192 8.53853 13078 ft 386 kts 301°
2026-05-04 08:10 47.48441 8.26394 10602 ft 294 kts 275°
2026-05-04 08:11 47.48720 8.23420 10374 ft 291 kts 275°
2026-05-04 08:11 47.49271 8.17500 9945 ft 290 kts 275°
2026-05-04 08:11 47.49547 8.14539 9816 ft 291 kts 275°
2026-05-04 08:12 47.49822 8.11581 9678 ft 291 kts 275°
2026-05-04 08:12 47.50177 8.08635 9544 ft 293 kts 286°
2026-05-04 08:12 47.51264 8.06079 8989 ft 302 kts 318°
2026-05-04 08:12 47.53124 8.04732 8540 ft 301 kts 351°
2026-05-04 08:13 47.55163 8.05023 8140 ft 293 kts 26°
2026-05-04 08:13 47.56737 8.06789 7780 ft 283 kts 55°
2026-05-04 08:13 47.57513 8.09388 7382 ft 276 kts 83°
2026-05-04 08:13 47.57385 8.12161 7027 ft 269 kts 109°
2026-05-04 08:14 47.56628 8.14689 6653 ft 268 kts 115°
2026-05-04 08:14 47.55949 8.17240 6230 ft 266 kts 102°
2026-05-04 08:14 47.55773 8.19986 5579 ft 273 kts 85°
2026-05-04 08:16 47.59624 8.35906 4623 ft 214 kts 95°
2026-05-04 08:16 47.59219 8.38033 4374 ft 212 kts 117°
2026-05-04 08:16 47.58323 8.39753 4115 ft 211 kts 136°
2026-05-04 08:17 47.57260 8.41207 3842 ft 211 kts 136°
2026-05-04 08:17 47.56190 8.42673 3592 ft 202 kts 136°
2026-05-04 08:17 47.55196 8.44037 3320 ft 193 kts 136°
2026-05-04 08:17 47.54222 8.45373 3056 ft 184 kts 136°
2026-05-04 08:19 47.48705 8.52925 1595 ft 142 kts 137°
2026-05-04 08:19 47.47980 8.53916 1420 ft 141 kts 136°
2026-05-04 08:20 47.47337 8.54796 1390 ft 104 kts 137°
2026-05-04 08:20 47.46931 8.55351 1391 ft 55 kts 137°
2026-05-04 08:20 47.46702 8.55632 1398 ft 36 kts 162°
2026-05-04 08:20 47.46506 8.55706 1395 ft 25 kts 166°
2026-05-04 08:21 47.46348 8.55807 1405 ft 25 kts 136°
2026-05-04 08:21 47.46225 8.55977 1406 ft 24 kts 144°
2026-05-04 08:21 47.46067 8.55990 1407 ft 24 kts 186°
2026-05-04 08:21 47.45900 8.55942 1408 ft 25 kts 197°
2026-05-04 08:22 47.45735 8.55873 1409 ft 26 kts 186°
2026-05-04 08:22 47.45639 8.55788 1409 ft 11 kts 279°
2026-05-04 08:24 47.45321 8.55443 1405 ft 10 kts 124°
2026-05-04 08:24 47.45294 8.55514 1411 ft 6 kts 119°
2026-05-04 08:24 47.45280 8.55574 1406 ft 6 kts 99°
2026-05-04 08:24 47.45273 8.55663 1407 ft 10 kts 95°
2026-05-04 08:25 47.45267 8.55760 1407 ft 9 kts 95°
2026-05-04 08:25 47.45238 8.55815 1409 ft 5 kts 179°
2026-05-04 08:25 47.45205 8.55810 1407 ft 4 kts 182°
2026-05-04 08:25 47.45180 8.55807 1407 ft 3 kts 185°
2026-05-04 08:26 47.45170 8.55805 1407 ft 0 kts 186°